sat.trackr.live / text

‹ back to catalog

STARLINK-34496

NORAD 64476 · 2025-133E

PAYLOAD ACTIVE UNKNOWN

§ Identity

Operator
Country
US
Launch date
2025-06-23
Launch site
AFETR
Launch vehicle
Mass (kg)
RCS (m²)

Purposes: comms

External: N2YO · Heavens-Above · Gunter

§ Orbital elements

Epoch: 2026-09-20T19:08:42.783360Z

Period
93.85 min
Inclination
53.1583°
Eccentricity
0.0001422
Mean motion
15.34404068 rev/d
Perigee alt
461.7 km
Apogee alt
463.7 km
Semi-major
6,840.8 km
B*
3.1029e-4
RAAN
284.6286°
Arg perigee
105.7989°
Mean anomaly
254.3171°
Rev number
7,113

§ Raw data

STARLINK-344961 64476U 25133E   26263.79771740  .00010123  00000+0  31029-3 0  99962 64476  53.1583 284.6286 0001422 105.7989 254.3171 15.34404068 71138

JSON: /api/v1/satellites/64476 · /tle

For live sub-satellite position, see the globe view (requires WebGL).

§ Visibility from observer

Set your observer location to see the next 7 days of passes ≥ 10°. The values pass through the URL so the page stays shareable.

No JS? Fill the form by hand. The geolocation button needs JavaScript.